Aguada Chunjabin, Mexico

1:16 PM CST on December 09, 2016 (GMT -0600)
Alberto Acuna Ongay

Weather History for MMCP - May, 2013

Change the Weather History Date:

Wednesday, May 8, 2013

  Actual Average Record
Temperature  
Mean Temperature 86 °F -  
Max Temperature 100 °F 91 °F 104 °F (2012)
Min Temperature 72 °F 73 °F 68 °F (2016)
Cooling Degree Days 21    
Growing Degree Days 36 (Base 50)    
Moisture  
Dew Point 72 °F    
Average Humidity 66    
Maximum Humidity 89    
Minimum Humidity 31    
Precipitation  
Precipitation 0.00 in - - ()
Sea Level Pressure  
Sea Level Pressure 29.95 in    
Wind  
Wind Speed 7 mph ()    
Max Wind Speed 18 mph    
Max Gust Speed -    
Visibility 6.5 miles    
Events      
Averages and records for this station are not official NWS values.
T = Trace of Precipitation, MM = Missing Value Source: Averaged Metar Reports

Daily Weather History Graph

Daily Weather History Graph

Search for Another Location

Airport or City:

Trip Planner

Search our weather history database for the weather conditions in past years. The results will help you decide how hot, cold, wet, or windy it might be!

Date:

Astronomy

May. 08, 2013 Rise Set
Actual Time 6:29 AM CDT 7:28 PM CDT
Civil Twilight 6:05 AM CDT 7:51 PM CDT
Nautical Twilight 5:38 AM CDT 8:19 PM CDT
Astronomical Twilight 5:10 AM CDT 8:47 PM CDT
Moon 5:27 AM CDT (5/8) 6:32 PM CDT (5/8)
Length of Visible Light 13h 45m
Length of Day
12h 58m
Waning Crescent, 2% of the Moon is Illuminated
May 8
Waning Crescent
May 9
New
May 17
First Quarter
May 24
Full
May 31
Last Quarter

Hourly Weather History & Observations

Time (CDT) Temp. Heat Index Dew Point Humidity Pressure Visibility Wind Dir Wind Speed Gust Speed Precip Events Conditions
12:50 AM 75 °F - 67 °F 69% 29.97 in 4 mi Calm Calm - -  
3:50 AM 75 °F - 69 °F 76% 29.96 in 4 mi SSE 2.2 mph - -  
5:15 AM 75.2 °F - 69.8 °F 83% 29.94 in 7.0 mi ESE 9.2 mph - N/A   Clear
5:41 AM 75.2 °F - 71.6 °F 89% 29.95 in 7.0 mi East 5.8 mph - N/A   Clear
6:45 AM 74 °F - 71 °F 88% 29.98 in 6 mi ESE 2.2 mph - -   Partly Cloudy
6:51 AM 75.2 °F - 71.6 °F 89% 29.98 in 7.0 mi East 6.9 mph - N/A   Partly Cloudy
7:41 AM 75.2 °F - 71.6 °F 89% 30.00 in 7.0 mi ESE 10.4 mph - N/A   Scattered Clouds
8:41 AM 78.8 °F - 73.4 °F 83% 30.01 in 7.0 mi ESE 11.5 mph - N/A   Scattered Clouds
9:45 AM 82.4 °F 87.2 °F 71.6 °F 70% 30.02 in 7.0 mi ESE 16.1 mph - N/A   Scattered Clouds
9:48 AM 88 °F - 73 °F 54% 30.01 in 6 mi SE 4.5 mph - -   Scattered Clouds
10:45 AM 87.8 °F 92.6 °F 69.8 °F 55% 30.02 in 7.0 mi ESE 18.4 mph - N/A   Scattered Clouds
11:41 AM 89.6 °F 94.7 °F 69.8 °F 52% 30.00 in 7.0 mi ESE 11.5 mph - N/A   Scattered Clouds
12:42 PM 91.4 °F 96.8 °F 69.8 °F 49% 29.98 in 7.0 mi ESE 11.5 mph - N/A   Scattered Clouds
12:50 PM 98 °F - 70 °F 31% 29.98 in 6 mi ESE 4.5 mph - -   Mostly Cloudy
1:40 PM 93.2 °F 98.8 °F 69.8 °F 46% 29.96 in 7.0 mi SSE 11.5 mph - N/A   Scattered Clouds
2:42 PM 89.6 °F 96.2 °F 71.6 °F 55% 29.93 in 7.0 mi West 11.5 mph - N/A   Scattered Clouds
3:40 PM 91.4 °F 100.1 °F 73.4 °F 55% 29.90 in 7.0 mi WNW 11.5 mph - N/A   Scattered Clouds
3:48 PM 92 °F - 73 °F 45% 29.92 in 6 mi NNW 6.7 mph - -   Partly Cloudy
4:42 PM 89.6 °F 98.2 °F 73.4 °F 59% 29.88 in 7.0 mi WNW 11.5 mph - N/A   Scattered Clouds
5:40 PM 86.0 °F 93.4 °F 73.4 °F 66% 29.88 in 7.0 mi North 11.5 mph - N/A   Partly Cloudy
6:41 PM 84.2 °F 92.3 °F 75.2 °F 74% 29.89 in 7.0 mi WNW 15.0 mph - N/A   Partly Cloudy
6:50 PM 85 °F - 77 °F 70% 29.90 in 6 mi NNW 6.7 mph - -   Clear
7:43 PM 82.4 °F 89.5 °F 75.2 °F 79% 29.90 in 7.0 mi North 11.5 mph - N/A   Scattered Clouds
8:41 PM 84.2 °F 90.9 °F 73.4 °F 70% 29.91 in 7.0 mi North 6.9 mph - N/A   Clear
9:42 PM 84.2 °F 89.6 °F 71.6 °F 66% 29.93 in 7.0 mi Calm Calm - N/A   Clear
9:50 PM 83 °F - 72 °F 63% 29.94 in 4 mi NE 2.2 mph - -  
10:41 PM 82.4 °F 86.3 °F 69.8 °F 66% 29.96 in 7.0 mi East 11.5 mph - N/A   Clear